Left ArrowRight Arrow

38.83388, -104.82136

Hourly Observations for September 8, 2018

Temp ( °F °C ) Dew Point ( °F °C ) Humidity (%) Winds ( mph kmh ) Pressure ( in mb ) Visibility ( mi km ) Precip ( " mm )
12:58 am 00:58 Mostly Cloudy 57 13.9 51 10.6 81 81 SE 3 6 29.85 1011 10 16 0.00 0.00
1:13 am 01:13 Cloudy 57 14 52 11 82 82 SSE 5 7 29.84 1011 10 16 0.00 0.00
1:58 am 01:58 Cloudy 56 13.3 52 10.9 86 86 SE 6 9 29.85 1011 10 16 0.00 0.00
2:08 am 02:08 Cloudy 55 13 52 11 88 88 ESE 6 9 29.83 1010 10 16 0.00 0.00
2:28 am 02:28 Mostly Cloudy 55 13 52 11 88 88 SSE 6 9 29.82 1010 10 16 0.00 0.00
2:58 am 02:58 Mostly Cloudy 54 12.1 52 11 93 93 Calm 29.81 1010 10 16 0.00 0.00
3:03 am 03:03 Mostly Cloudy 54 12 52 11 94 94 Calm 29.83 1010 10 16 0.00 0.00
3:58 am 03:58 Mostly Cloudy with Mist and Fog 54 12 52 10.9 93 93 SE 5 7 29.81 1010 7 11 0.00 0.00
4:43 am 04:43 Mostly Cloudy with Mist and Fog 54 12 52 11 94 94 Calm 29.79 1009 5 8 0.00 0.00
4:58 am 04:58 Mostly Cloudy 53 11.5 51 10.7 95 95 Calm 29.81 1009 10 16 0.00 0.00
5:58 am 05:58 Mostly Cloudy 52 11 50 9.8 92 92 Calm 29.80 1009 10 16 0.00 0.00
6:58 am 06:58 Cloudy 51 10.6 49 9.4 92 92 WNW 5 7 29.81 1010 10 16 0.00 0.00
7:58 am 07:58 Cloudy 52 10.9 49 9.5 91 91 NW 3 6 29.81 1010 10 16 0.00 0.00
8:13 am 08:13 Mostly Cloudy 52 11 48 9 88 88 Calm 29.81 1010 10 16 0.00 0.00
8:28 am 08:28 Mostly Cloudy 52 11 48 9 88 88 Calm 29.81 1010 10 16 0.00 0.00
8:43 am 08:43 Partly Cloudy 52 11 50 10 94 94 Calm 29.81 1010 10 16 0.00 0.00
8:58 am 08:58 Partly Cloudy 53 11.5 49 9.7 89 89 Calm 29.81 1010 10 16 0.00 0.00
9:08 am 09:08 Mostly Cloudy 54 12 50 10 88 88 ESE 3 6 29.81 1010 10 16 0.00 0.00
9:38 am 09:38 Mostly Cloudy 57 14 52 11 82 82 ESE 3 6 29.81 1010 10 16 0.00 0.00
9:43 am 09:43 Mostly Cloudy 57 14 50 10 77 77 Calm 29.81 1010 10 16 0.00 0.00
9:48 am 09:48 Partly Cloudy 55 13 50 10 82 82 Calm 29.81 1010 10 16 0.00 0.00
9:58 am 09:58 Mostly Sunny 58 14.2 51 10.5 79 79 ESE 5 7 29.80 1009 10 16 0.00 0.00
10:43 am 10:43 Mostly Cloudy 59 15 52 11 77 77 SE 8 13 29.79 1009 10 16 0.00 0.00
10:58 am 10:58 Mostly Cloudy 61 15.9 52 10.9 72 72 ESE 6 9 29.79 1009 10 16 0.00 0.00
11:18 am 11:18 Partly Cloudy 61 16 52 11 72 72 SE 7 11 29.79 1009 10 16 0.00 0.00
11:58 am 11:58 Mostly Sunny 63 17.4 53 11.5 68 68 ESE 9 15 29.75 1008 10 16 0.00 0.00
12:58 pm 12:58 Sunny 68 20 53 11.5 58 58 SE 12 19 29.71 1006 10 16 0.00 0.00
1:58 pm 13:58 Sunny 68 19.9 54 12.4 62 62 SE 17 28 29.69 1005 10 16 0.00 0.00
2:58 pm 14:58 Partly Cloudy 66 19.1 54 12 64 64 SSE 13 20 29.69 1005 10 16 0.00 0.00
3:11 pm 15:11 Mostly Sunny 66 19 54 12 64 64 S 13 20 29.69 1005 10 16 0.00 0.00
3:58 pm 15:58 Partly Cloudy 67 19.4 52 11.3 60 60 SSE 13 20 29.68 1005 10 16 0.00 0.00
4:18 pm 16:18 Mostly Cloudy with Thunderstorms 66 19 52 11 60 60 SSE 13 20 29.68 1005 10 16 0.00 0.00
4:31 pm 16:31 Mostly Cloudy with Thunderstorms 66 19 52 11 60 60 S 7 11 29.70 1006 10 16 0.00 0.00
4:38 pm 16:38 Mostly Cloudy with Light Rain 66 19 45 7 46 46 W 13 20 29.70 1006 10 16 0.00 0.00
4:42 pm 16:42 Mostly Cloudy with Light Rain 66 19 46 8 49 49 WNW 20 31 29.70 1006 10 16 0.00 0.00
4:50 pm 16:50 Cloudy with Light Rain 64 18 41 5 43 43 W 15 24 29.72 1006 7 11 0.00 0.00
4:58 pm 16:58 Mostly Cloudy with Light Showers 62 16.5 48 9 61 61 S 7 11 29.68 1005 7 11 0.01 0.25
5:16 pm 17:16 Mostly Cloudy 64 18 43 6 46 46 SSW 8 13 29.67 1005 10 16 0.00 0.00
5:58 pm 17:58 Mostly Cloudy 66 18.8 47 8.2 50 50 SSE 10 17 29.67 1005 10 16 0.00 0.00
6:58 pm 18:58 Sunny 65 18.3 49 9.7 57 57 S 10 17 29.68 1005 10 16 0.00 0.00
7:58 pm 19:58 Clear 64 18 48 8.8 55 55 S 12 19 29.69 1005 10 16 0.00 0.00
8:58 pm 20:58 Clear 62 16.6 49 9.2 62 62 SSE 12 19 29.72 1007 10 16 0.00 0.00
9:58 pm 21:58 Mostly Clear 60 15.8 49 9.4 66 66 S 13 20 29.70 1006 10 16 0.00 0.00
10:58 pm 22:58 Mostly Clear 60 15.8 49 9.4 66 66 W 3 6 29.71 1006 10 16 0.00 0.00
11:58 pm 23:58 Partly Cloudy 58 14.2 49 9.5 74 74 NNW 6 9 29.71 1006 10 16 0.00 0.00

Powered by Vaisala Xweather